Flag for United Kingdom Weather past 2 weeks in Bolton, England, United Kingdom

Now
57 °F

Partly sunny.


Feels Like: 54 °F
Forecast: 41 / 53 °F
Wind: 14 mph from West

Location: Manchester Airport

Current Time: Oct 20, 2014 at 3:00:21 PM

Latest Report: Oct 20, 2014 at 2:20 PM


Visibility: N/A

Pressure: 29.89 "Hg

Humidity: 77%

Dew point: 50 °F

Location of BoltonLocation

Historic Weather in Bolton — Graph

°F

Bolton temperature yesterday

Maximum temperature yesterday: 61 °F (at 9:50 AM)
Minimum temperature yesterday: 54 °F (at 11:20 PM)
Average temperature yesterday: 58 °F

Past Weeks' High & Low Weather Summary

 TemperatureHumidityPressure
High66 °F (Oct 18, 2:50 PM)100% (Oct 6, 11:20 AM)30.04 "Hg (Oct 6, 11:20 AM)
Low36 °F (Oct 12, 6:50 AM)63% (Oct 5, 2:20 PM)29.18 "Hg (Oct 8, 4:20 PM)
Average52 °F88%29.64 "Hg
* Reported Oct 5 1:20 PM — Oct 20 1:50 PM, Bolton, Weather by CustomWeather, © 2014

Note: Actual official high and low records may vary slightly from our data, if they occured in-between our weather recording intervals... More about our weather records

Advertising

Bolton weather history for previous 24 hours

 ConditionsComfort  
Time TempWeatherWind HumidityBarometerVisibility
1:50 PM
Oct 20
57 °FScattered clouds.15 mph82%29.89 "HgN/A
1:20 PM55 °FPassing clouds.15 mph88%29.89 "HgN/A
12:50 PM54 °FPassing clouds.12 mph100%29.89 "HgN/A
12:20 PM54 °FScattered clouds.8 mph100%29.92 "HgN/A
11:50 AM52 °FScattered clouds.9 mph100%29.92 "HgN/A
11:20 AM54 °FLight rain. Partly sunny.9 mph94%29.92 "Hg6 mi
10:50 AM54 °FRain. Broken clouds.9 mph88%29.92 "Hg6 mi
10:20 AM54 °FPassing clouds.10 mph88%29.92 "HgN/A
9:50 AM54 °FPassing clouds.9 mph88%29.92 "HgN/A
9:20 AM52 °FPassing clouds.10 mph94%29.92 "HgN/A
8:50 AM52 °FPassing clouds.10 mph88%29.92 "HgN/A
8:20 AM52 °FPassing clouds.12 mph88%29.92 "HgN/A
7:50 AM50 °FPassing clouds.10 mph94%29.92 "HgN/A
7:20 AM50 °FPassing clouds.8 mph94%29.89 "HgN/A
6:50 AM52 °FCool.9 mph88%29.89 "HgN/A
6:20 AM50 °FClear.8 mph94%29.89 "Hg10 mi
5:50 AM50 °FPassing clouds.10 mph94%29.89 "HgN/A
4:20 AM52 °FPassing clouds.10 mph88%29.92 "HgN/A
3:50 AM52 °FClear.9 mph94%29.92 "Hg10 mi
3:20 AM52 °FPassing clouds.10 mph94%29.92 "HgN/A
2:50 AM52 °FPassing clouds.12 mph94%29.92 "HgN/A
2:20 AM52 °FPassing clouds.10 mph94%29.92 "HgN/A
1:50 AM52 °FPassing clouds.9 mph94%29.92 "HgN/A
1:20 AM54 °FPassing clouds.10 mph88%29.92 "HgN/A
12:50 AM54 °FPassing clouds.8 mph88%29.89 "HgN/A
12:20 AM54 °FPassing clouds.12 mph88%29.89 "HgN/A
11:50 PM
Oct 19
54 °FPassing clouds.12 mph94%29.89 "HgN/A
11:20 PM54 °FPassing clouds.8 mph94%29.89 "HgN/A
10:50 PM55 °FPassing clouds.14 mph88%29.86 "HgN/A
10:20 PM57 °FPassing clouds.13 mph82%29.86 "HgN/A
9:50 PM57 °FScattered showers. Passing clouds.14 mph88%29.86 "HgN/A
9:20 PM55 °FScattered showers. Passing clouds.10 mph88%29.83 "HgN/A
8:50 PM57 °FPassing clouds.13 mph82%29.83 "HgN/A
8:20 PM57 °FScattered showers. Passing clouds.13 mph82%29.80 "HgN/A
7:50 PM57 °FPassing clouds.13 mph82%29.80 "HgN/A
7:20 PM57 °FMostly cloudy.16 mph82%29.77 "HgN/A
6:50 PM57 °FPassing clouds.18 mph82%29.77 "HgN/A
6:20 PM57 °FScattered clouds.20 mph82%29.77 "HgN/A
5:50 PM57 °FScattered clouds.17 mph82%29.77 "HgN/A
5:20 PM57 °FScattered showers. Scattered clouds.16 mph82%29.77 "HgN/A
4:50 PM57 °FScattered showers. Scattered clouds.16 mph88%29.77 "HgN/A
4:20 PM59 °FScattered showers. Scattered clouds.16 mph77%29.77 "HgN/A
3:50 PM57 °FMixture of precip. Scattered clouds.21 mph88%29.77 "HgN/A
3:20 PM61 °FSprinkles. Partly sunny.20 mph72%29.77 "HgN/A
Weather by CustomWeather, © 2014

See weather overviewHow to use our weather pages